Weather in Novyye Shaltyamy

Russia / Chuvash Republic     55°21′42″N   47°29′17″E
temp.,
°C
wind,
m/s
gust,
m/s
humid.,
%
clouds,
%
prec.,
mm/h
press.,
hPa
HPBL,
m
23 january, sat
sat2300:00−15se5895100 0.1 1021253
03:00−14se61095100 0.4 1021279
06:00−12sse51095100 0.4 1020277
09:00−10sse5995100 1.6 1019259
12:00−7sse589596 0.3 1019283
15:00−6sse589598 0.3 1018256
18:00−4sse5896100 0.3 1018221
21:00−1sse5897100 0.4 1018230
24 january, sun
sun2400:00+2sw510100100 0.4 1017279
03:00+1wsw51199100 0.7 1018344
06:00+1sw389798 0.0 1019225
09:00+1sw489999 0.0 1020254
12:00+1ssw38100100 0.1 1021226
15:00+1ssw49100100 0.3 1020251
18:00+1ssw4999100 0.1 1022249
21:00+1ssw4999100 0.3 1023256
25 january, mon
mon2500:00+1ssw41099100 0.1 1023308
03:00+1ssw51193100 0.6 1023420
06:00+1ssw51196100 0.1 1024449
09:00−1s41091100 0.2 1025309
12:00−2s5990100 0.0 1025345
15:00−2s599190 0.0 1025324
18:00−5sse5119568 0.0 1026313
21:00−2s7119284 0.0 1025599
26 january, tue
tue2600:00−2s51093100 0.1 1025656
03:00−2sse61094100 0.1 1024512
06:00−2sse61093100 0.1 1022449
09:00−3s61192100 0.1 1023609
12:00−2s71291100 0.0 1022643
15:00−3sse61292100 0.0 1021614
18:00−2s61193100 0.1 1021523
21:00−1s71391100 0.1 1020514
27 january, wed
wed2700:00−1s51193100 0.0 1020472
03:00−1s61194100 0.1 1020482
06:000ssw51097100 0.0 1018366
09:00−1sse71293100 3.3 1018497
12:00−2sse71194100 0.3 1019442
15:00−1sse4895100 0.0 1022267
18:00−5sse61292100 0.0 1019351
21:00−2sse61197100 1.0 1017387